Regional Weather Roundup
Issued by NWS San Angelo, TX

Home | Current Version | Previous Version | Text Only | Print | Product List | Glossary On
Versions: 1 2 3 4 5 6 7 8 9 10 11 12 13 14 15 16 17 18 19 20 21 22 23 24 25 26 27 28 29 30 31 32 33 34 35 36 37 38 39 40 41 42 43 44 45 46 47 48 49 50
000
ASUS44 KSJT 260510
RWRSJT
WEST CENTRAL TEXAS REGIONAL WEATHER ROUNDUP
NATIONAL WEATHER SERVICE SAN ANGELO TX
1100 PM CST THU DEC 25 2014

NOTE: "FAIR" INDICATES FEW OR NO CLOUDS BELOW 12,000 FEET WITH NO
SIGNIFICANT WEATHER AND/OR OBSTRUCTIONS TO VISIBILITY.

TXZ049-054-064>066-071>073-076>078-098-099-113-114-127-128-139-140-
154-155-168>170-260600
...LOCATIONS ACROSS WEST CENTRAL TEXAS...

CITY           SKY/WX    TMP DP  RH WIND       PRES   REMARKS
SAN ANGELO     MOCLDY    53  31  42 S16G25    29.84R
ABILENE        MOCLDY    52  26  36 S22G31    29.83R
DYESS AFB      MOCLDY    53  28  39 S28       29.81F
JUNCTION       MOCLDY    52  31  44 S9        29.91R
SWEETWATER     PTCLDY    51  26  37 S16G23    29.84S
BROWNWOOD      CLOUDY    50  32  50 S12       29.91R
COLEMAN        MOCLDY    47  32  55 S8        29.89S
SONORA         CLOUDY    52  36  54 S14       29.92S
OZONA          FAIR      52  34  50 S16G26    29.88R
BRADY          CLEAR     54  36  50 S10       29.90S
$$

TEXAS PANHANDLE/OKLAHOMA PANHANDLE

CITY           SKY/WX    TMP DP  RH WIND       PRES   REMARKS
AMARILLO       CLEAR     42  24  49 S15       29.71S WCI  34
BORGER         CLEAR     47  20  34 S7        29.69R
CANADIAN       CLEAR     49  25  39 S14G22    29.70S
DALHART        CLEAR     34  17  50 S10       29.67R WCI  26
DUMAS          CLEAR     33  17  51 S8        29.67S WCI  26
GUYMON         NOT AVBL
HEREFORD       CLEAR     37  24  60 S8        29.71S WCI  31
PAMPA          PTCLDY    41  23  48 S10       29.70S WCI  35
PERRYTON       CLEAR     37  22  54 S9        29.69R WCI  31
$$

SOUTHERN PANHANDLE/SOUTH PLAINS/ROLLING PLAINS

CITY           SKY/WX    TMP DP  RH WIND       PRES   REMARKS
LUBBOCK        CLOUDY    47  26  44 S17G25    29.74R
SNYDER         PTCLDY    46  27  46 S12       29.81S
CHILDRESS      CLOUDY    52  26  36 S14       29.76R
SEMINOLE       MOCLDY    43  27  53 S9        29.76S WCI  37
$$

PERMIAN BASIN

CITY           SKY/WX    TMP DP  RH WIND       PRES   REMARKS
MIDLAND        CLOUDY    50  28  42 S15       29.78R
ODESSA         CLOUDY    51  26  37 S20G28    29.77S
WINK           MOCLDY    50  22  33 SE15      29.74R
$$

FAR WEST/SOUTHWEST MOUNTAINS/TRANS PECOS

CITY           SKY/WX    TMP DP  RH WIND       PRES   REMARKS
ALPINE         MOCLDY    55  18  23 SW13      29.87R
DRYDEN           N/A     50  31  48 E3        29.83S
EL PASO        PTCLDY    54  22  28 SW13      29.75R
FORT STOCKTON  CLOUDY    51  25  36 S15       29.78S
GUADALUPE PASS NOT AVBL
MARFA          MOCLDY    37  16  41 SE5       29.87R WCI  34
PECOS          CLOUDY    44  28  54 N6        29.74R
$$

DALLAS/FORT WORTH METROPLEX

CITY           SKY/WX    TMP DP  RH WIND       PRES   REMARKS
DFW AIRPORT    MOCLDY    53  42  66 S22       29.93S
FTW MEACHAM    MOCLDY    51  40  65 S13       29.93R
DAL-EXECUTIVE  PTCLDY    52  41  66 S13G21    29.94R
GRAND PRAIRIE  PTCLDY    52  43  71 S13       29.96R
ADDISON        PTCLDY    54  42  64 S14G23    29.96S
MESQUITE       PTCLDY    51  40  66 S15       29.97R
LANCASTER      PTCLDY    50  40  67 S9        29.98R
$$

NORTH CENTRAL TEXAS

CITY           SKY/WX    TMP DP  RH WIND       PRES   REMARKS
SHRMAN/DENISON MOCLDY    51  41  68 S12       29.95R
GAINESVILLE    PTCLDY    50  37  61 S9        29.94R
BRIDGEPORT     MOCLDY    51  34  52 S9        29.92R
DENTON         MOCLDY    53  40  61 S18G26    29.94R
WAXAHACHIE     PTCLDY    50  43  78 S12       29.97R
GRANBURY       PTCLDY    50  35  57 SE6       29.95R
$$

WESTERN NORTH TEXAS

CITY           SKY/WX    TMP DP  RH WIND       PRES   REMARKS
WICHITA FALLS  CLOUDY    50  29  44 S15       29.84R
VERNON         MOCLDY    49  24  37 S10       29.81R
BRECKENRIDGE   CLOUDY    54  28  37 S13G21    29.87R
COMANCHE       CLOUDY    51  35  54 S14G23    29.91R
$$

CENTRAL AND SOUTH CENTRAL TEXAS

CITY           SKY/WX    TMP DP  RH WIND       PRES   REMARKS
AUSTIN/BERGSTM MOCLDY    50  45  83 S9        29.99S
WACO           PTCLDY    53  45  74 S18       29.96S
HILLSBORO      PTCLDY    53  44  71 SE16      29.96S
TEMPLE         MOCLDY    52  41  66 SE13      29.97R
KILLEEN-GRAY   CLEAR     44  40  83 SE8       29.96R WCI  40
FORT HOOD      CLEAR     49  43  78 S13       29.96R
GEORGETOWN     CLEAR     52  45  76 S8        29.97R
LAGO VISTA     FAIR      53  46  76 S12G20    29.98R
SAN MARCOS     MOCLDY    52  45  76 S13       29.99F
NEW BRAUNFELS  CLOUDY    55  48  77 S15       29.99F
RANDOLPH AFB   CLOUDY    55  47  75 SE12      29.99F
SAN ANTONIO    MOCLDY    56  47  71 S16       29.99F
STINSON        CLOUDY    54  46  74 SE7       29.98F
PLEASANTON     NOT AVBL
LA GRANGE      CLOUDY    57  51  80 S5        30.01S
GIDDINGS       CLOUDY    55  48  75 S8G16     30.05S
$$

EAST TEXAS

CITY           SKY/WX    TMP DP  RH WIND       PRES   REMARKS
PARIS          PTCLDY    43  34  70 SE10      30.01R WCI  37
CLARKSVILLE    NOT AVBL
TYLER          CLEAR     53  43  68 S12       30.01R
LONGVIEW       PTCLDY    50  42  74 S9        30.03S
PALESTINE      PTCLDY    53  46  79 SE10G16   30.02F
NACOGDOCHES      N/A    N/A N/A N/A MISG        N/A
$$

TEXAS HILL COUNTRY AND EDWARDS PLATEAU

CITY           SKY/WX    TMP DP  RH WIND       PRES   REMARKS
LLANO          PTCLDY    54  43  66 S9        29.98S
HORSESHOE BAY  FAIR      54  44  71 S7        29.96S
KERRVILLE      CLOUDY    51  46  81 SE13G22   29.98S
FREDERICKSBRG  PTCLDY    50  42  76 S10       29.97R
ROCKSPRINGS    MOCLDY    52  39  62 S18       29.95R
HONDO          CLOUDY    53  44  71 SE6       30.02R
UVALDE         CLEAR     48  36  64 E9        29.98S
DEL RIO        PTCLDY    52  36  54 E9        29.91R
$$

SOUTHEAST TEXAS

CITY           SKY/WX    TMP DP  RH WIND       PRES   REMARKS
COLLEGE STN    CLOUDY    55  47  74 SE9       30.03S
CALDWELL       CLOUDY    54  48  82 SE12      30.05S
CROCKETT         N/A     52  48  87 SE6       30.08S
BRENHAM        MOCLDY    55  48  79 SE7       30.04S
HUNTSVILLE     PTCLDY    52  46  80 SE5       30.05R
CONROE         PTCLDY    48  45  89 SE5       30.07R
HOUSTON BUSH   CLOUDY    51  47  86 S5        30.06R
HOUSTON HOBBY  CLOUDY    55  50  83 SE3       30.06S
PERLAND        CLOUDY    58  50  75 SE7       30.08R
WHARTON        MOCLDY    54  51  89 SE6       30.04F
$$

THE UPPER TEXAS COAST

CITY           SKY/WX    TMP DP  RH WIND       PRES   REMARKS
ORANGE         CLOUDY    54  51  90 E7        30.11S
PORT ARTHUR    MOCLDY    56  51  84 SE9       30.08S
GALVESTON      CLOUDY    63  54  72 S16       30.08R
ANGLETON       CLOUDY    61  52  72 S13       30.06R
BAY CITY         N/A     60  56  85 SE7       30.05S
$$

TEXAS COASTAL BEND, RIO GRANDE PLAINS DEEP SOUTH TEXAS

CITY           SKY/WX    TMP DP  RH WIND       PRES   REMARKS
VICTORIA       MOCLDY    57  52  83 SE7       30.01F
BEEVILLE       CLOUDY    60  53  76 S12       29.99S
ROCKPORT       CLOUDY    65  54  67 S12G22    30.00F
PORT ARANSAS   CLOUDY    65  56  74 S17G23    30.00F
PORT LAVACA    CLOUDY    59  55  85 SE9       30.02S
CORPUS CHRISTI CLOUDY    64  54  69 S15       30.00S
KINGSVILLE NAS CLOUDY    64  56  75 SE15G29   29.99F
COTULLA        CLEAR     53  44  71 SE7       29.97S
LAREDO         NOT AVBL
BROWNSVILLE    CLOUDY    67  58  72 SE13      30.00S
PORT ISABEL    CLOUDY    67  57  70 SE16G26   30.00S
HEBBRONVILLE   PTCLDY    55  49  81 SE10      29.97S
MCALLEN        CLOUDY    61  55  81 SE8       29.99F
WESLACO        CLOUDY    61  54  76 SE5       29.98F
FALFURRIAS     CLOUDY    63  53  68 SE9       29.98F
EDINBURG       CLOUDY    60  53  76 CALM      30.00S
$$


USA.gov is the U.S. government's official web portal to all federal, state and local government web resources and services.